User: anonymous   Login
Location: ?
(35.4996°N, 139.3166°E)
Time: 16:23:01
(UTC+00:00)
Language:

Cosmos 1954 - Orbit

View from above orbital plane
View from above orbital plane
View from above satellite
View from above satellite

Ground track
Ground track

The orbit data is extracted from the following two-line orbital elements,

1 19256U 88053A   24251.87974712  .00000807  00000-0  29477-3 0  9993
2 19256  74.0479 148.3782 0016631 318.5882  41.4009 14.34570690894155
Epoch (UTC): 07 September 2024 21:06:50
Eccentricity: 0.0016631
inclination: 74.0479°
perigee height: 764 km
apogee height: 788 km
right ascension of ascending node: 148.3782°
argument of perigee: 318.5882°
revolutions per day: 14.34570690
mean anomaly at epoch: 41.4009°
orbit number at epoch: 89415

The dashed part of the orbit path shows where the satellite is in the earth's shadow,  

DLR